FW3211 Weather Reports


Display with metric or nautical units.
time (UTC)temp
F
wind
direction
speed
MPH
gust
MPH
rain 1hr
in
rain 24hr
in
rain mn
in
humidity
%
barometer
mb
20260901172406 74 287 2.0 4.0 0.00 0.00 0.00 77 1019.5
20260901171905 74 287 1.0 4.0 0.00 0.00 0.00 77 1019.5
20260901171409 74 238 1.0 3.0 0.00 0.00 0.00 77 1019.5
20260901171154 74 41 1.0 3.0 0.00 0.00 0.00 77 1019.5
20260901170402 74 41 1.0 4.0 0.00 0.00 0.00 77 1019.5
20260901165902 74 261 2.0 7.0 0.00 0.00 0.00 77 1019.5
20260901165355 75 260 1.0 7.0 0.00 0.00 0.00 77 1019.5
20260901164855 75 245 0.0 2.0 0.00 0.00 0.00 77 1019.5
20260901164352 75 231 0.0 2.0 0.00 0.00 0.00 77 1019.5
20260901163852 75 231 0.0 2.0 0.00 0.00 0.00 77 1019.6
20260901163353 75 231 1.0 2.0 0.00 0.00 0.00 77 1019.5
20260901162851 75 231 1.0 3.0 0.00 0.00 0.00 78 1019.6
20260901162351 76 231 1.0 3.0 0.00 0.00 0.00 77 1019.6
20260901161850 76 168 0.0 2.0 0.00 0.00 0.00 77 1019.6
20260901161352 76 168 0.0 2.0 0.00 0.00 0.00 77 1019.6
20260901160906 76 168 0.0 2.0 0.00 0.00 0.00 77 1019.7
20260901160353 76 168 0.0 2.0 0.00 0.00 0.00 77 1019.7
20260901160134 76 168 0.0 2.0 0.00 0.00 0.00 78 1019.7
20260901155347 76 168 1.0 2.0 0.00 0.00 0.00 78 1019.7
20260901154848 76 168 1.0 4.0 0.00 0.00 0.00 78 1019.7
20260901154347 76 168 2.0 4.0 0.00 0.00 0.00 78 1019.7
20260901153842 76 184 1.0 4.0 0.00 0.00 0.00 78 1019.8
20260901153337 76 189 1.0 2.0 0.00 0.00 0.00 77 1019.8
20260901152834 76 189 1.0 3.0 0.00 0.00 0.00 77 1019.8
20260901152333 76 189 1.0 3.0 0.00 0.00 0.00 76 1019.8
20260901151837 76 189 1.0 3.0 0.00 0.00 0.00 76 1019.8
20260901151339 76 189 1.0 3.0 0.00 0.00 0.00 76 1019.9
20260901150835 76 187 0.0 2.0 0.00 0.00 0.00 75 1019.9
20260901150609 76 187 0.0 2.0 0.00 0.00 0.00 75 1020.0
20260901145835 76 187 1.0 7.0 0.00 0.00 0.00 74 1019.9
20260901145332 76 187 2.0 7.0 0.00 0.00 0.00 74 1020.0
20260901144833 76 145 2.0 4.0 0.00 0.00 0.00 74 1020.1
20260901144334 76 199 2.0 5.0 0.00 0.00 0.00 74 1020.0
20260901144139 76 152 2.0 5.0 0.00 0.00 0.00 74 1020.1
20260901143335 76 166 2.0 5.0 0.00 0.00 0.00 75 1020.1
20260901142833 76 173 2.0 5.0 0.00 0.00 0.00 75 1020.2
20260901142620 77 202 2.0 7.0 0.00 0.00 0.00 74 1020.2
20260901141833 77 110 2.0 7.0 0.00 0.00 0.00 74 1020.2
20260901141332 77 143 3.0 8.0 0.00 0.00 0.00 74 1020.2
20260901140833 77 180 3.0 8.0 0.00 0.00 0.00 74 1020.2
20260901140334 78 110 2.0 6.0 0.00 0.00 0.00 72 1020.2
20260901135835 78 164 3.0 9.0 0.00 0.00 0.00 72 1020.3
20260901135622 78 224 3.0 9.0 0.00 0.00 0.00 72 1020.3
20260901134834 78 166 3.0 7.0 0.00 0.00 0.00 73 1020.2
20260901134334 78 187 3.0 8.0 0.00 0.00 0.00 72 1020.2
20260901133912 78 163 3.0 9.0 0.00 0.00 0.00 72 1020.2
20260901133855 78 116 3.0 9.0 0.00 0.00 0.00 73 1020.2
20260901132835 78 204 2.0 7.0 0.00 0.00 0.00 73 1020.1
20260901132333 78 169 2.0 7.0 0.00 0.00 0.00 73 1020.2
20260901131833 78 178 3.0 7.0 0.00 0.00 0.00 73 1020.2
20260901131332 78 183 3.0 6.0 0.00 0.00 0.00 73 1020.2
20260901130835 78 177 3.0 8.0 0.00 0.00 0.00 73 1020.3
20260901130336 78 157 3.0 10.0 0.00 0.00 0.00 73 1020.2
20260901125836 78 152 2.0 10.0 0.00 0.00 0.00 71 1020.3
20260901125334 78 204 3.0 10.0 0.00 0.00 0.00 73 1020.3
20260901124835 78 250 4.0 10.0 0.00 0.00 0.00 72 1020.3
20260901124335 78 126 4.0 10.0 0.00 0.00 0.00 73 1020.3
20260901123833 78 141 4.0 12.0 0.00 0.00 0.00 73 1020.2
20260901123335 78 90 4.0 12.0 0.00 0.00 0.00 74 1020.2
20260901122834 78 104 4.0 10.0 0.00 0.00 0.00 74 1020.2
20260901122334 78 56 4.0 10.0 0.00 0.00 0.00 74 1020.3
20260901122118 78 162 4.0 9.0 0.00 0.00 0.00 75 1020.2
20260901121345 78 158 4.0 10.0 0.00 0.00 0.00 75 1020.2
20260901120832 78 112 3.0 10.0 0.00 0.00 0.00 75 1020.2
20260901120333 78 147 2.0 6.0 0.00 0.00 0.00 74 1020.2
20260901120147 78 114 3.0 8.0 0.00 0.00 0.00 74 1020.1
20260901115333 78 97 3.0 8.0 0.00 0.00 0.00 75 1020.2
20260901115123 77 137 3.0 6.0 0.00 0.00 0.00 76 1020.2
20260901114334 77 151 3.0 9.0 0.00 0.00 0.00 76 1020.2
20260901113837 77 186 3.0 9.0 0.00 0.00 0.00 76 1020.2
20260901113335 77 134 2.0 7.0 0.00 0.00 0.00 76 1020.2
20260901112833 77 160 2.0 7.0 0.00 0.00 0.00 76 1020.2
20260901112625 77 174 3.0 7.0 0.00 0.00 0.00 76 1020.2
20260901111832 77 179 3.0 7.0 0.00 0.00 0.00 76 1020.2
20260901111636 77 172 3.0 9.0 0.00 0.00 0.00 76 1020.3
20260901110832 77 187 3.0 10.0 0.00 0.00 0.00 76 1020.2
20260901110332 77 245 3.0 10.0 0.00 0.00 0.00 76 1020.2
20260901105911 77 165 4.0 11.0 0.00 0.00 0.00 76 1020.3
20260901105856 77 139 4.0 11.0 0.00 0.00 0.00 76 1020.3
20260901104922 76 237 4.0 14.0 0.00 0.00 0.00 76 1020.2
20260901104907 77 199 4.0 13.0 0.00 0.00 0.00 76 1020.2
20260901103832 77 147 4.0 14.0 0.00 0.00 0.00 76 1020.2
20260901103337 77 200 4.0 9.0 0.00 0.00 0.00 76 1020.3
20260901103118 77 133 4.0 9.0 0.00 0.00 0.00 74 1020.3
20260901102335 77 193 4.0 9.0 0.00 0.00 0.00 74 1020.2
20260901101835 78 212 4.0 10.0 0.00 0.00 0.00 73 1020.3
20260901101347 78 217 3.0 10.0 0.00 0.00 0.00 72 1020.3
20260901100834 78 319 2.0 6.0 0.00 0.00 0.00 72 1020.2
20260901100620 79 174 3.0 10.0 0.00 0.00 0.00 72 1020.2
20260901095832 79 87 3.0 10.0 0.00 0.00 0.00 72 1020.2
20260901095335 79 124 3.0 7.0 0.00 0.00 0.00 73 1020.2
20260901094910 80 116 3.0 11.0 0.00 0.00 0.00 72 1020.1
20260901094851 79 47 3.0 8.0 0.00 0.00 0.00 72 1020.1
20260901093834 80 182 3.0 11.0 0.00 0.00 0.00 71 1020.1
20260901093336 80 87 3.0 6.0 0.00 0.00 0.00 70 1020.1
20260901092837 80 158 3.0 8.0 0.00 0.00 0.00 69 1020.0
20260901092342 80 102 2.0 8.0 0.00 0.00 0.00 68 1020.0
20260901092118 80 102 2.0 7.0 0.00 0.00 0.00 66 1019.9
20260901091337 81 189 2.0 7.0 0.00 0.00 0.00 66 1019.9
20260901090850 81 227 2.0 5.0 0.00 0.00 0.00 68 1019.9
20260901090340 80 187 2.0 5.0 0.00 0.00 0.00 66 1019.9
20260901085833 81 167 1.0 5.0 0.00 0.00 0.00 68 1019.9
20260901085336 80 165 1.0 4.0 0.00 0.00 0.00 67 1019.8
20260901084832 80 113 2.0 6.0 0.00 0.00 0.00 68 1019.8
20260901084409 80 204 2.0 6.0 0.00 0.00 0.00 67 1019.7
20260901084355 80 170 2.0 6.0 0.00 0.00 0.00 68 1019.8
20260901083332 80 180 2.0 4.0 0.00 0.00 0.00 67 1019.7
20260901083122 80 170 2.0 4.0 0.00 0.00 0.00 67 1019.7
20260901082334 80 173 2.0 4.0 0.00 0.00 0.00 68 1019.7
20260901081832 79 213 2.0 4.0 0.00 0.00 0.00 68 1019.7
20260901081336 79 117 2.0 4.0 0.00 0.00 0.00 69 1019.7
20260901080830 79 119 2.0 4.0 0.00 0.00 0.00 69 1019.7
20260901080328 79 108 2.0 4.0 0.00 0.00 0.00 68 1019.7
20260901075829 79 123 2.0 4.0 0.00 0.00 0.00 68 1019.6
20260901075327 79 180 2.0 4.0 0.00 0.00 0.00 69 1019.6
20260901074829 79 165 2.0 5.0 0.00 0.00 0.00 69 1019.6
20260901074324 79 163 2.0 5.0 0.00 0.00 0.00 68 1019.5
20260901073823 79 168 2.0 5.0 0.00 0.00 0.00 68 1019.4
20260901073615 79 116 2.0 5.0 0.00 0.00 0.00 70 1019.4
20260901072818 79 166 2.0 4.0 0.00 0.00 0.00 70 1019.2
20260901072318 79 167 1.0 4.0 0.00 0.00 0.00 69 1019.4
20260901071818 78 183 1.0 4.0 0.00 0.00 0.00 69 1019.4
20260901071318 78 114 1.0 3.0 0.00 0.00 0.00 69 1019.4
20260901070817 78 114 1.0 3.0 0.00 0.00 0.00 69 1019.2
20260901070346 78 114 2.0 3.0 0.00 0.00 0.00 69 1019.2
20260901070329 78 113 1.0 3.0 0.00 0.00 0.00 70 1019.2
20260901065308 78 114 2.0 3.0 0.00 0.00 0.00 68 1019.1
20260901064811 79 112 1.0 3.0 0.00 0.00 0.00 68 1019.1
20260901064545 79 118 1.0 3.0 0.00 0.00 0.00 69 1019.1
20260901063806 78 118 1.0 4.0 0.00 0.00 0.00 69 1019.0
20260901063311 78 118 1.0 4.0 0.00 0.00 0.00 69 1019.0
20260901062805 78 122 1.0 3.0 0.00 0.00 0.00 70 1019.0
20260901062309 78 38 1.0 3.0 0.00 0.00 0.00 70 1018.9
20260901061802 77 33 1.0 2.0 0.00 0.00 0.00 70 1018.9
20260901061301 77 31 1.0 2.0 0.00 0.00 0.00 71 1018.9
20260901060802 76 4 1.0 4.0 0.00 0.00 0.00 71 1018.8
20260901060301 76 52 1.0 4.0 0.00 0.00 0.00 70 1018.8
20260901055759 76 39 1.0 3.0 0.00 0.00 0.00 71 1018.8
20260901055301 75 48 1.0 4.0 0.00 0.00 0.00 71 1018.7
20260901054758 74 50 1.0 4.0 0.00 0.00 0.00 71 1018.7
20260901054255 74 16 1.0 3.0 0.00 0.00 0.00 71 1018.7
20260901053749 74 270 1.0 4.0 0.00 0.00 0.00 71 1018.7
20260901053535 74 29 1.0 4.0 0.00 0.00 0.00 72 1018.6
20260901052740 73 29 2.0 3.0 0.00 0.00 0.00 71 1018.6
20260901052238 73 56 2.0 3.0 0.00 0.00 0.00 72 1018.7
20260901052053 73 336 1.0 3.0 0.00 0.00 0.00 73 1018.6
20260901051242 73 333 1.0 4.0 0.00 0.00 0.00 73 1018.6
20260901051017 73 309 1.0 4.0 0.00 0.00 0.00 73 1018.6
20260901050239 73 332 1.0 3.0 0.00 0.00 0.00 72 1018.7
20260901045737 73 37 1.0 4.0 0.00 0.00 0.00 72 1018.6
20260901045240 73 37 2.0 4.0 0.00 0.00 0.00 72 1018.6
20260901044736 73 283 1.0 4.0 0.00 0.00 0.00 72 1018.5
20260901044236 73 50 1.0 4.0 0.00 0.00 0.00 72 1018.5
20260901044014 73 325 2.0 4.0 0.00 0.00 0.00 72 1018.6
20260901043235 73 295 2.0 4.0 0.00 0.00 0.00 72 1018.5
20260901042817 73 16 1.0 3.0 0.00 0.00 0.00 72 1018.5
20260901042758 73 312 1.0 3.0 0.00 0.00 0.00 71 1018.5
20260901041733 73 12 1.0 4.0 0.00 0.00 0.00 71 1018.5
20260901041233 73 12 2.0 4.0 0.00 0.00 0.00 72 1018.5
20260901040733 73 26 1.0 3.0 0.00 0.00 0.00 72 1018.5
20260901040233 73 26 2.0 4.0 0.00 0.00 0.00 72 1018.5
20260901035732 73 14 2.0 5.0 0.00 0.00 0.00 72 1018.6
20260901035233 73 342 2.0 5.0 0.00 0.00 0.00 71 1018.5
20260901034733 73 339 2.0 3.0 0.00 0.00 0.00 72 1018.5
20260901034234 72 334 2.0 4.0 0.00 0.00 0.00 71 1018.4
20260901034024 72 23 2.0 5.0 0.00 0.00 0.00 72 1018.4
20260901033235 72 24 1.0 5.0 0.00 0.00 0.00 71 1018.5
20260901032737 72 46 1.0 3.0 0.00 0.00 0.00 72 1018.5
20260901032235 72 46 2.0 3.0 0.00 0.00 0.00 71 1018.4
20260901031734 72 47 2.0 3.0 0.00 0.00 0.00 72 1018.4
20260901031233 72 57 1.0 3.0 0.00 0.00 0.00 72 1018.4
20260901030737 72 57 1.0 3.0 0.00 0.00 0.00 71 1018.4
20260901030233 72 57 1.0 3.0 0.00 0.00 0.00 72 1018.4
20260901025733 72 57 1.0 3.0 0.00 0.00 0.00 72 1018.4
20260901025232 72 57 1.0 3.0 0.00 0.00 0.00 71 1018.4
20260901024738 72 312 0.0 2.0 0.00 0.00 0.00 72 1018.4
20260901024235 72 312 0.0 1.0 0.00 0.00 0.00 71 1018.5
20260901023732 72 312 0.0 2.0 0.00 0.00 0.00 71 1018.4
20260901023233 72 312 1.0 3.0 0.00 0.00 0.00 71 1018.4
20260901023018 72 312 1.0 3.0 0.00 0.00 0.00 71 1018.4
20260901022232 72 354 1.0 3.0 0.00 0.00 0.00 71 1018.3
20260901021733 72 354 2.0 3.0 0.00 0.00 0.00 71 1018.3
20260901021234 72 354 1.0 3.0 0.00 0.00 0.00 70 1018.4
20260901020734 71 332 1.0 3.0 0.00 0.00 0.00 71 1018.4
20260901020232 71 27 1.0 3.0 0.00 0.00 0.00 71 1018.4
20260901020036 71 27 1.0 3.0 0.00 0.00 0.00 71 1018.4
20260901015235 71 27 1.0 2.0 0.00 0.00 0.00 71 1018.4
20260901014736 71 27 1.0 3.0 0.00 0.00 0.00 71 1018.4
20260901014233 71 27 1.0 3.0 0.00 0.00 0.00 70 1018.3
20260901013740 71 25 1.0 2.0 0.00 0.00 0.00 70 1018.3
20260901013526 71 24 1.0 3.0 0.00 0.00 0.00 70 1018.3
20260901012735 71 24 0.0 3.0 0.00 0.00 0.00 70 1018.4
20260901012232 71 342 0.0 1.0 0.00 0.00 0.00 71 1018.4
20260901011735 71 342 0.0 2.0 0.00 0.00 0.00 70 1018.5
20260901011232 71 342 1.0 3.0 0.00 0.00 0.00 70 1018.5
20260901010733 71 342 1.0 3.0 0.00 0.00 0.00 70 1018.5
20260901010232 71 342 1.0 3.0 0.00 0.00 0.00 70 1018.5
20260901005732 71 4 1.0 3.0 0.00 0.00 0.00 70 1018.5
20260901005314 71 4 1.0 2.0 0.00 0.00 0.00 70 1018.5
20260901005255 71 50 1.0 3.0 0.00 0.00 0.00 70 1018.5
20260901004233 71 4 0.0 2.0 0.00 0.00 0.00 70 1018.5
20260901003732 71 4 1.0 3.0 0.00 0.00 0.00 70 1018.5
20260901003232 71 4 1.0 3.0 0.00 0.00 0.00 70 1018.6
20260901002733 71 4 1.0 2.0 0.00 0.00 0.00 70 1018.6
20260901002236 71 345 1.0 3.0 0.00 0.00 0.00 70 1018.6
20260901001732 71 350 1.0 3.0 0.00 0.00 0.00 69 1018.6
20260901001523 71 329 1.0 3.0 0.00 0.00 0.00 69 1018.6
20260901001016 70 329 2.0 4.0 0.00 0.00 0.00 70 1018.6
20260901000230 70 329 2.0 4.0 0.00 0.00 0.00 70 1018.6
20260901000119 70 312 1.0 3.0 0.00 0.00 0.00 72 1018.7
20260901000113 70 312 1.0 3.0 0.00 0.00 0.00 72 1018.7
20260831235808 70 359 2.0 4.0 0.00 0.00 0.00 71 1018.7
20260831234226 70 311 1.0 3.0 0.00 0.00 0.00 72 1018.7
20260831233725 70 308 1.0 3.0 0.00 0.00 0.00 72 1018.8
20260831233226 70 308 1.0 3.0 0.00 0.00 0.00 73 1018.8
20260831232726 70 308 2.0 3.0 0.00 0.00 0.00 72 1018.8
20260831232225 70 308 1.0 2.0 0.00 0.00 0.00 72 1018.8
20260831231723 70 308 1.0 2.0 0.00 0.00 0.00 72 1018.8
20260831231226 70 308 0.0 2.0 0.00 0.00 0.00 72 1018.8
20260831230724 70 308 0.0 2.0 0.00 0.00 0.00 71 1018.8
20260831230235 70 308 1.0 2.0 0.00 0.00 0.00 71 1018.8
20260831225723 70 308 1.0 2.0 0.00 0.00 0.00 71 1018.8
20260831225221 70 308 1.0 2.0 0.00 0.00 0.00 71 1018.8
20260831224717 70 308 1.0 2.0 0.00 0.00 0.00 71 1018.8
20260831224220 70 308 1.0 2.0 0.00 0.00 0.00 71 1018.8
20260831223718 70 308 1.0 3.0 0.00 0.00 0.00 71 1018.7
20260831223219 70 308 2.0 3.0 0.00 0.00 0.00 71 1018.7
20260831222718 70 308 2.0 3.0 0.00 0.00 0.00 71 1018.7
20260831222216 71 305 2.0 3.0 0.00 0.00 0.00 71 1018.7
20260831221716 71 301 2.0 3.0 0.00 0.00 0.00 71 1018.7
20260831221215 71 301 2.0 3.0 0.00 0.00 0.00 71 1018.7
20260831220952 71 297 2.0 4.0 0.00 0.00 0.00 71 1018.6
20260831220213 71 312 2.0 4.0 0.00 0.00 0.00 71 1018.6
20260831215713 71 335 2.0 3.0 0.00 0.00 0.00 71 1018.6
20260831215211 71 333 1.0 3.0 0.00 0.00 0.00 71 1018.6
20260831214710 71 334 2.0 3.0 0.00 0.00 0.00 72 1018.5
20260831214211 71 301 2.0 3.0 0.00 0.00 0.00 72 1018.5
20260831213710 71 306 2.0 3.0 0.00 0.00 0.00 72 1018.6
20260831213214 71 306 2.0 3.0 0.00 0.00 0.00 72 1018.5
20260831212711 71 306 2.0 4.0 0.00 0.00 0.00 72 1018.5
20260831212211 71 306 1.0 4.0 0.00 0.00 0.00 72 1018.6
20260831211712 71 305 1.0 3.0 0.00 0.00 0.00 72 1018.5
20260831211444 71 304 2.0 3.0 0.00 0.00 0.00 72 1018.5
20260831210711 71 297 2.0 3.0 0.00 0.00 0.00 72 1018.5
20260831210208 71 297 2.0 3.0 0.00 0.00 0.00 73 1018.6
20260831205708 71 297 1.0 3.0 0.00 0.00 0.00 72 1018.5
20260831205206 71 297 1.0 3.0 0.00 0.00 0.00 73 1018.5
20260831204706 71 297 2.0 4.0 0.00 0.00 0.00 73 1018.5
20260831204203 71 297 2.0 4.0 0.00 0.00 0.00 73 1018.5
20260831203947 71 304 2.0 4.0 0.00 0.00 0.00 73 1018.4
20260831203205 71 323 1.0 4.0 0.00 0.00 0.00 73 1018.3
20260831202949 71 282 1.0 3.0 0.00 0.00 0.00 73 1018.2
20260831202203 71 282 1.0 3.0 0.00 0.00 0.00 73 1018.2
20260831201706 71 282 1.0 3.0 0.00 0.00 0.00 73 1018.1
20260831201245 71 256 1.0 3.0 0.00 0.00 0.00 73 1018.1
20260831201225 71 243 1.0 3.0 0.00 0.00 0.00 73 1018.1
20260831200208 72 256 1.0 3.0 0.00 0.00 0.00 73 1018.1
20260831195706 72 256 1.0 2.0 0.00 0.00 0.00 73 1018.1
20260831195448 72 256 1.0 2.0 0.00 0.00 0.00 73 1018.0
20260831194706 72 264 1.0 3.0 0.00 0.00 0.00 73 1018.0
20260831194207 72 264 1.0 3.0 0.00 0.00 0.00 73 1018.0
20260831193704 72 239 1.0 3.0 0.00 0.00 0.00 73 1018.0
20260831193204 72 239 1.0 3.0 0.00 0.00 0.00 73 1018.0
20260831192705 72 247 1.0 3.0 0.00 0.00 0.00 73 1018.0
20260831192203 72 280 1.0 2.0 0.00 0.00 0.00 73 1018.0
20260831191705 72 280 1.0 3.0 0.00 0.00 0.00 73 1018.0
20260831191206 72 286 1.0 3.0 0.00 0.00 0.00 73 1017.9
20260831190951 72 264 1.0 4.0 0.00 0.00 0.00 73 1017.9
20260831190208 72 263 1.0 4.0 0.00 0.00 0.00 73 1017.9
20260831185703 72 287 1.0 3.0 0.00 0.00 0.00 73 1017.9
20260831185201 72 287 1.0 3.0 0.00 0.00 0.00 73 1017.8
20260831184701 72 287 1.0 3.0 0.00 0.00 0.00 73 1017.7
20260831184202 72 286 1.0 4.0 0.00 0.00 0.00 73 1017.7
20260831183701 72 280 1.0 4.0 0.00 0.00 0.00 74 1017.7
20260831183204 72 276 1.0 3.0 0.00 0.00 0.00 73 1017.6
20260831182657 73 193 0.0 2.0 0.00 0.00 0.00 73 1017.6
20260831182154 73 192 0.0 2.0 0.00 0.00 0.00 73 1017.6
20260831181649 73 192 0.0 1.0 0.00 0.00 0.00 73 1017.6
20260831181007 73 193 1.0 3.0 0.00 0.00 0.00 73 1017.7
20260831180505 73 193 1.0 3.0 0.00 0.00 0.00 73 1017.7
20260831180013 73 244 1.0 3.0 0.00 0.00 0.00 74 1017.7
20260831175509 73 243 1.0 3.0 0.00 0.00 0.00 74 1017.7
20260831175003 73 210 2.0 4.0 0.00 0.00 0.00 74 1017.6
20260831174504 73 220 2.0 4.0 0.00 0.00 0.00 74 1017.6
20260831174006 73 220 1.0 4.0 0.00 0.00 0.00 74 1017.6
20260831173504 73 154 1.0 4.0 0.00 0.00 0.00 74 1017.6
20260831173002 73 317 1.0 4.0 0.00 0.00 0.00 74 1017.6